This is the latest recevied weather packets stored in our database for station/object DO7ZT-13. If no packets are shown the sender has not sent any weather packets the latest 10 day(s).
| Time | Temp. | Humidity | Pressure | Rain* | Wind** | Luminosity | Snow |
|---|---|---|---|---|---|---|---|
| 1777875320 | 17.22° C | 49% | 1013.8 hPa | 0 mm | 0.45 m/s, 134° | - | - |
| 1777875008 | 17.22° C | 48% | 1013.8 hPa | 0 mm | 0.45 m/s, 224° | - | - |
| 1777874733 | 17.22° C | 48% | 1013.8 hPa | 0 mm | 0.89 m/s, 180° | - | - |
| 1777874420 | 17.22° C | 47% | 1013.6 hPa | 0 mm | 0.89 m/s, 162° | - | - |
| 1777874108 | 17.22° C | 47% | 1013.6 hPa | 0 mm | 0.89 m/s, 177° | - | - |
| 1777873819 | 17.22° C | 46% | 1013.6 hPa | 0 mm | 1.34 m/s, 179° | - | - |
| 1777873507 | 17.22° C | 47% | 1013.2 hPa | 0 mm | 0.45 m/s, 183° | - | - |
| 1777873220 | 16.11° C | 51% | 1013.2 hPa | 0 mm | 0.45 m/s, 114° | - | - |
| 1777872907 | 16.11° C | 51% | 1013.2 hPa | 0 mm | 0.45 m/s, 120° | - | - |
| 1777872620 | 16.11° C | 50% | 1013.4 hPa | 0 mm | 0.45 m/s, 138° | - | - |
| 1777872307 | 15° C | 51% | 1013.4 hPa | 0 mm | 0.89 m/s, 144° | - | - |
| 1777872020 | 15° C | 51% | 1013.4 hPa | 0 mm | 0.45 m/s, 132° | - | - |
| 1777871708 | 15° C | 54% | 1013.1 hPa | 0 mm | 0.45 m/s, 96° | - | - |
| 1777871420 | 15° C | 57% | 1013.1 hPa | 0 mm | 0.45 m/s, 72° | - | - |
| 1777871107 | 15° C | 58% | 1013.1 hPa | 0 mm | 0.89 m/s, 132° | - | - |
| 1777870820 | 15° C | 57% | 1012.9 hPa | 0 mm | 0.89 m/s, 140° | - | - |
| 1777870508 | 15° C | 56% | 1012.9 hPa | 0 mm | 0.89 m/s, 126° | - | - |
| 1777870220 | 15° C | 53% | 1012.9 hPa | 0 mm | 0.45 m/s, 135° | - | - |
| 1777869907 | 15° C | 53% | 1012.9 hPa | 0 mm | 0.45 m/s, 123° | - | - |
| 1777869620 | 15° C | 55% | 1012.9 hPa | 0 mm | 0.89 m/s, 138° | - | - |
| 1777869307 | 15° C | 55% | 1012.9 hPa | 0 mm | 0.89 m/s, 138° | - | - |
| 1777869020 | 13.89° C | 58% | 1013.1 hPa | 0 mm | 0.45 m/s, 144° | - | - |
| 1777868707 | 12.78° C | 59% | 1013.1 hPa | 0 mm | 0.45 m/s, 138° | - | - |
| 1777868420 | 12.78° C | 64% | 1013.1 hPa | 0 mm | 0 m/s | - | - |
| 1777868107 | 12.78° C | 63% | 1013.1 hPa | 0 mm | 0.45 m/s, 138° | - | - |
* Rain latest hour (hover to see other rain measurements)
** Current wind speed in m/s (hover to see current wind gust speed)